Location: Unspecified
(0.0000°N, 0.0000°E)
Time: 14:51:09
(UTC+00:00)

NUDT-PHONESAT - Visible Passes

Search period start: 22 July 2018 00:00
Search period end: 01 August 2018 00:00
Orbit: 493 x 509 km, 97.4° (Epoch: 22 July)

Date Brightness Start Highest point End Pass type
(mag) Time Alt. Az. Time Alt. Az. Time Alt. Az.
24 Jul ? 05:36:05 10° NE 05:39:22 32° E 05:42:40 10° SSE visible
25 Jul ? 05:17:55 10° ENE 05:20:13 16° ESE 05:22:30 10° SE visible
25 Jul ? 18:41:27 10° SSW 18:44:07 19° W 18:46:48 10° NW visible
29 Jul ? 05:33:47 10° NE 05:36:59 29° E 05:40:11 10° SSE visible
29 Jul ? 19:00:12 10° WSW 19:00:54 10° WSW 19:01:34 10° W visible
30 Jul ? 05:15:45 10° ENE 05:17:48 14° ESE 05:19:51 10° SE visible
30 Jul ? 18:38:52 10° SSW 18:41:42 21° WSW 18:44:33 10° NW visible
